Flag for Canada Weather past 2 weeks in Brampton, Ontario, Canada

Now
68 °F

Partly cloudy.


Feels Like: 68 °F
Forecast: 51 / 68 °F
Wind: 13 mph from Southwest

Location: Toronto Pearson International Airport

Current Time: Sep 21, 2014 at 2:58:25 AM

Latest Report: Sep 21, 2014 at 2:00 AM


Visibility: 15 mi

Pressure: 29.71 "Hg

Humidity: 78%

Dew point: 61 °F

Location of BramptonLocation

Historic Weather in Brampton — Graph

°F

Brampton temperature yesterday

Maximum temperature yesterday: 77 °F (at 3:00 PM)
Minimum temperature yesterday: 48 °F (at 3:00 AM)
Average temperature yesterday: 64 °F

Past Weeks' High & Low Weather Summary

 TemperatureHumidityPressure
High77 °F (Sep 20, 3:00 PM)94% (Sep 6, 1:00 AM)30.36 "Hg (Sep 6, 1:00 AM)
Low41 °F (Sep 19, 2:00 AM)41% (Sep 8, 4:00 PM)29.52 "Hg (Sep 11, 4:00 AM)
Average59 °F73%30.09 "Hg
* Reported Sep 6 1:00 AM — Sep 21 1:00 AM, Brampton, Weather by CustomWeather, © 2014

Note: Actual official high and low records may vary slightly from our data, if they occured in-between our weather recording intervals... More about our weather records

Advertising

Brampton weather history for previous 24 hours

 ConditionsComfort  
Time TempWeatherWind HumidityBarometerVisibility
1:00 AM
Sep 21
70 °FMostly cloudy.10 mph78%29.74 "Hg15 mi
12:00 AM70 °FPartly cloudy.7 mph83%29.73 "Hg15 mi
11:00 PM
Sep 20
72 °FPassing clouds.15 mph73%29.76 "Hg15 mi
10:00 PM72 °FPassing clouds.16 mph73%29.78 "Hg15 mi
9:00 PM72 °FPassing clouds.10 mph73%29.78 "Hg15 mi
8:00 PM73 °FPartly sunny.12 mph65%29.79 "Hg15 mi
7:00 PM73 °FBroken clouds.15 mph61%29.79 "Hg15 mi
6:00 PM75 °FBroken clouds.21 mph57%29.82 "Hg15 mi
5:00 PM77 °FPartly sunny.23 mph51%29.83 "Hg15 mi
4:00 PM77 °FPartly sunny.18 mph54%29.85 "Hg15 mi
3:00 PM77 °FScattered clouds.23 mph54%29.85 "Hg15 mi
2:00 PM75 °FScattered clouds.24 mph54%29.86 "Hg15 mi
1:00 PM73 °FPartly sunny.21 mph61%29.89 "Hg15 mi
9:00 AM61 °FFog.8 mph94%30.00 "Hg6 mi
8:00 AM61 °FFog.8 mph88%30.01 "Hg6 mi
7:00 AM55 °FFog.7 mph94%30.02 "Hg6 mi
6:00 AM52 °FPassing clouds.No wind88%30.02 "Hg12 mi
5:00 AM54 °FPassing clouds.2 mph88%30.03 "Hg15 mi
4:00 AM52 °FPassing clouds.3 mph88%30.02 "Hg15 mi
3:00 AM48 °FPassing clouds.No wind87%30.05 "Hg15 mi
2:00 AM50 °FPassing clouds.No wind88%30.06 "Hg15 mi
Weather by CustomWeather, © 2014

See weather overviewHow to use our weather pages